{"data":{"norad_id":55107,"intl_designator":"2023-001DC","name":"AAC-AIS-SAT1","alt_names":[],"object_type":"PAYLOAD","status":"ACTIVE","operator":null,"country":"UK","launch_date":"2023-01-03","launch_site_code":"AFETR","launch_vehicle":null,"mission":null,"orbit_class":"UNKNOWN","rcs_meters":null,"size_class":null,"mass_kg":null,"dimensions":null,"purposes":[],"wikipedia_slug":null,"has_3d_model":false,"image_url":null,"decayed_at":null,"tle_current":{"epoch":"2026-05-25T04:02:45.593664Z","epoch_age_seconds":54436,"freshness":"FRESH","line1":"1 55107U 23001DC  26145.16858326  .00004460  00000+0  44672-3 0  9990","line2":"2 55107  97.9197 221.8235 0009018   5.5721 354.5596 14.91875801174859","mean_motion":14.91875801,"eccentricity":0.0009018,"inclination_deg":97.9197,"raan_deg":221.8235,"arg_perigee_deg":5.5721,"mean_anomaly_deg":354.5596,"bstar":0.00044672,"rev_number":17485,"period_min":96.522780182826,"perigee_km":585.80114281387,"apogee_km":598.37263862317,"semimajor_km":6970.2238907185,"source":"CELESTRAK","updated_at":"2026-05-25T13:37:58.815906Z"}}}